Hanamaulu, HI

9:55 PM HST on August 24, 2016 (GMT -1000)
Lihue

Weather History for PHLI - June, 2014

Change the Weather History Date:

Thursday, June 19, 2014

  Actual Average Record
Temperature  
Mean Temperature 77 °F 78 °F  
Max Temperature 82 °F 84 °F 88 °F (1982)
Min Temperature 72 °F 73 °F 66 °F (1958)
Degree Days  
Heating Degree Days 0 0  
Month to date heating degree days 0 0  
Since 1 June heating degree days 0 0  
Since 1 July heating degree days 0 0  
Cooling Degree Days 12 13  
Month to date cooling degree days 241 243  
Year to date cooling degree days 1462 1482  
Since 1 June cooling degree days 241 243  
Growing Degree Days 27 (Base 50)    
Moisture  
Dew Point 68 °F    
Average Humidity 75    
Maximum Humidity 82    
Minimum Humidity 67    
Precipitation  
Precipitation 0.05 in 0.05 in 0.81 in (2004)
Month to date precipitation 2.89 0.99  
Year to date precipitation 18.68 16.83  
Snow  
Snow 0.00 in - - ()
Month to date snowfall 0.0  
Since 1 June snowfall 0.0  
Since 1 July snowfall 0.0  
Snow Depth 0.00 in    
Sea Level Pressure  
Sea Level Pressure 30.10 in    
Wind  
Wind Speed 17 mph (NE)    
Max Wind Speed 24 mph    
Max Gust Speed 30 mph    
Visibility 10 miles    
Events      
T = Trace of Precipitation, MM = Missing Value Source: NWS Daily Summary

Daily Weather History Graph

Daily Weather History Graph

Search for Another Location

Airport or City:

Trip Planner

Search our weather history database for the weather conditions in past years. The results will help you decide how hot, cold, wet, or windy it might be!

Date:

Astronomy

Jun. 19, 2014 Rise Set
Actual Time 5:54 AM HST 7:23 PM HST
Civil Twilight 5:29 AM HST 7:48 PM HST
Nautical Twilight 4:59 AM HST 8:18 PM HST
Astronomical Twilight 4:28 AM HST 8:49 PM HST
Moon 12:19 AM HST (6/19) 12:47 PM HST (6/19)
Length of Visible Light 14h 18m
Length of Day
13h 28m
Waning Gibbous, 49% of the Moon is Illuminated
Jun 19
Waning Gibbous
Jun 26
New
Jul 5
First Quarter
Jul 12
Full
Jul 18
Last Quarter

Hourly Weather History & Observations

Time (HST) Temp. Heat Index Dew Point Humidity Pressure Visibility Wind Dir Wind Speed Gust Speed Precip Events Conditions
12:53 AM 75.0 °F - 66.9 °F 76% 30.10 in 10.0 mi ENE 15.0 mph - N/A   Clear
1:53 AM 75.0 °F - 68.0 °F 79% 30.09 in 10.0 mi ENE 11.5 mph - N/A   Partly Cloudy
2:53 AM 75.9 °F - 66.9 °F 74% 30.08 in 10.0 mi ENE 11.5 mph - N/A   Overcast
3:53 AM 75.9 °F - 66.9 °F 74% 30.08 in 10.0 mi NE 11.5 mph - N/A   Mostly Cloudy
4:53 AM 75.0 °F - 69.1 °F 82% 30.09 in 10.0 mi ENE 12.7 mph - 0.05 in   Overcast
5:53 AM 73.9 °F - 66.9 °F 79% 30.09 in 10.0 mi ENE 17.3 mph - N/A   Mostly Cloudy
6:32 AM 75.2 °F - 69.8 °F 83% 30.11 in 10.0 mi NE 17.3 mph - N/A   Scattered Clouds
6:53 AM 75.0 °F - 66.9 °F 76% 30.11 in 10.0 mi NE 18.4 mph - N/A   Partly Cloudy
7:53 AM 78.1 °F - 70.0 °F 76% 30.12 in 10.0 mi NE 17.3 mph - N/A   Partly Cloudy
8:53 AM 78.1 °F - 69.1 °F 74% 30.12 in 10.0 mi NE 19.6 mph - N/A   Partly Cloudy
9:53 AM 79.0 °F - 69.1 °F 72% 30.13 in 10.0 mi NE 21.9 mph 27.6 mph N/A   Scattered Clouds
10:53 AM 78.1 °F - 69.1 °F 74% 30.13 in 10.0 mi NE 23.0 mph - N/A   Partly Cloudy
11:53 AM 80.1 °F 82.9 °F 69.1 °F 69% 30.12 in 10.0 mi NE 19.6 mph - 0.00 in   Scattered Clouds
12:53 PM 81.0 °F 83.8 °F 68.0 °F 65% 30.11 in 10.0 mi NE 18.4 mph - N/A   Partly Cloudy
1:53 PM 80.1 °F 82.7 °F 68.0 °F 67% 30.10 in 10.0 mi NE 19.6 mph - N/A   Scattered Clouds
2:53 PM 78.1 °F - 66.9 °F 68% 30.09 in 10.0 mi NE 17.3 mph - N/A   Mostly Cloudy
3:53 PM 80.1 °F 82.1 °F 66.0 °F 62% 30.08 in 10.0 mi NE 17.3 mph - N/A   Clear
4:53 PM 79.0 °F - 64.9 °F 62% 30.08 in 10.0 mi NE 15.0 mph - N/A   Clear
5:53 PM 78.1 °F - 66.0 °F 66% 30.08 in 10.0 mi NE 17.3 mph - N/A   Partly Cloudy
6:53 PM 75.9 °F - 66.0 °F 71% 30.09 in 10.0 mi NE 13.8 mph - N/A   Mostly Cloudy
7:53 PM 75.0 °F - 66.0 °F 73% 30.10 in 10.0 mi NE 16.1 mph - N/A   Clear
8:53 PM 75.0 °F - 66.9 °F 76% 30.11 in 10.0 mi NE 15.0 mph - N/A   Scattered Clouds
9:53 PM 73.9 °F - 68.0 °F 82% 30.12 in 10.0 mi NE 19.6 mph - 0.01 in   Mostly Cloudy
10:53 PM 73.9 °F - 66.0 °F 76% 30.14 in 10.0 mi NE 13.8 mph - N/A   Overcast
11:53 PM 73.9 °F - 66.9 °F 79% 30.13 in 10.0 mi NE 13.8 mph - 0.00 in   Scattered Clouds